When you browse on this site, cookies collect data to enhance your experience and personalize the content and advertising you see.
Visit our Privacy Policy to learn more. By continuing to use the site, you agree to this use of cookies and data.
  • en France
  • Liste des pays
  • À 7 jours
  • Température de l'eau
  • Carte météo
  • Widgets météo
  • user-avatar
    Se connecter

    Météo par heure à Mahilyow

    Ce jour, 16 Septembre, Lundi

    Heure Température Précipitation Vent Pression Humidité
    00:00 +12°C° 0.3 mm 5 m/s 742 mmHg 75%
    01:00 +12°C° 0.3 mm 5 m/s 742 mmHg 80%
    02:00 +12°C° 0 mm 5 m/s 741 mmHg 81%
    03:00 +12°C° 0.5 mm 5 m/s 741 mmHg 84%
    04:00 +11°C° 0.5 mm 6 m/s 741 mmHg 86%
    05:00 +11°C° 0.5 mm 6 m/s 741 mmHg 88%
    06:00 +11°C° 0.2 mm 6 m/s 740 mmHg 86%
    07:00 +11°C° 0.2 mm 6 m/s 740 mmHg 84%
    08:00 +12°C° 0 mm 5 m/s 740 mmHg 84%
    09:00 +13°C° 0.1 mm 6 m/s 740 mmHg 75%
    10:00 +14°C° 0.1 mm 7 m/s 740 mmHg 66%
    11:00 +15°C° 0.1 mm 8 m/s 740 mmHg 57%
    12:00 +15°C° 0.1 mm 8 m/s 740 mmHg 57%
    13:00 +15°C° 0.1 mm 8 m/s 740 mmHg 57%
    14:00 +15°C° 0.1 mm 7 m/s 740 mmHg 57%
    15:00 +15°C° 0 mm 7 m/s 740 mmHg 59%
    16:00 +14°C° 0 mm 7 m/s 740 mmHg 61%
    17:00 +14°C° 0 mm 6 m/s 740 mmHg 63%
    18:00 +13°C° 0 mm 6 m/s 740 mmHg 66%
    19:00 +12°C° 0 mm 5 m/s 740 mmHg 70%
    20:00 +10°C° 0 mm 5 m/s 740 mmHg 73%
    21:00 +10°C° 0.1 mm 5 m/s 740 mmHg 74%
    22:00 +10°C° 0.1 mm 5 m/s 740 mmHg 76%
    23:00 +9°C° 0.1 mm 5 m/s 740 mmHg 78%

    Demain, 17 Septembre, Mardi

    Heure Température Précipitation Vent Pression Humidité
    00:00 +9°C° 0 mm 5 m/s 740 mmHg 81%
    01:00 +8°C° 0 mm 5 m/s 740 mmHg 83%
    02:00 +7°C° 0 mm 5 m/s 740 mmHg 86%
    03:00 +7°C° 0 mm 5 m/s 740 mmHg 87%
    04:00 +7°C° 0 mm 5 m/s 739 mmHg 87%
    05:00 +6°C° 0 mm 5 m/s 739 mmHg 88%
    06:00 +7°C° 0 mm 5 m/s 739 mmHg 84%
    07:00 +8°C° 0 mm 5 m/s 739 mmHg 80%
    08:00 +9°C° 0 mm 6 m/s 739 mmHg 76%
    09:00 +10°C° 0.1 mm 6 m/s 739 mmHg 70%
    10:00 +11°C° 0.1 mm 6 m/s 739 mmHg 64%
    11:00 +13°C° 0.1 mm 6 m/s 739 mmHg 58%
    12:00 +14°C° 0.3 mm 6 m/s 738 mmHg 56%
    13:00 +14°C° 0.3 mm 6 m/s 738 mmHg 55%
    14:00 +14°C° 0.3 mm 6 m/s 738 mmHg 53%
    15:00 +13°C° 0.1 mm 5 m/s 737 mmHg 57%
    16:00 +13°C° 0.1 mm 5 m/s 737 mmHg 60%
    17:00 +12°C° 0.1 mm 4 m/s 737 mmHg 64%
    18:00 +11°C° 0.1 mm 4 m/s 737 mmHg 69%
    19:00 +10°C° 0.1 mm 4 m/s 736 mmHg 75%
    20:00 +8°C° 0.1 mm 4 m/s 736 mmHg 80%
    21:00 +8°C° 0.2 mm 4 m/s 736 mmHg 82%
    22:00 +9°C° 0.2 mm 3 m/s 735 mmHg 84%
    23:00 +9°C° 0.2 mm 3 m/s 735 mmHg 86%

    Après-demain, 18 Septembre, Mercredi

    Heure Température Précipitation Vent Pression Humidité
    00:00 +8°C° 0.3 mm 4 m/s 735 mmHg 87%
    01:00 +8°C° 0.3 mm 4 m/s 734 mmHg 88%
    02:00 +8°C° 0.3 mm 5 m/s 734 mmHg 89%
    03:00 +7°C° 0.2 mm 5 m/s 734 mmHg 88%
    04:00 +6°C° 0.2 mm 5 m/s 734 mmHg 87%
    05:00 +5°C° 0.2 mm 5 m/s 734 mmHg 86%
    06:00 +6°C° 0.2 mm 5 m/s 734 mmHg 86%
    07:00 +5°C° 0.2 mm 6 m/s 734 mmHg 85%
    08:00 +5°C° 0.2 mm 6 m/s 734 mmHg 85%
    09:00 +4°C° 0.7 mm 6 m/s 735 mmHg 87%
    10:00 +4°C° 0.7 mm 6 m/s 735 mmHg 89%
    11:00 +5°C° 0.7 mm 5 m/s 736 mmHg 91%
    12:00 +6°C° 0.3 mm 5 m/s 736 mmHg 89%
    13:00 +7°C° 0.3 mm 4 m/s 736 mmHg 87%
    14:00 +8°C° 0.3 mm 4 m/s 737 mmHg 85%
    15:00 +8°C° 0.3 mm 4 m/s 738 mmHg 84%
    16:00 +10°C° 0.3 mm 4 m/s 738 mmHg 82%
    17:00 +9°C° 0.3 mm 5 m/s 739 mmHg 80%
    18:00 +8°C° 0.1 mm 4 m/s 740 mmHg 84%
    19:00 +7°C° 0.1 mm 4 m/s 740 mmHg 87%
    20:00 +6°C° 0.1 mm 4 m/s 741 mmHg 90%
    21:00 +6°C° 0 mm 4 m/s 741 mmHg 91%
    22:00 +6°C° 0 mm 4 m/s 741 mmHg 92%
    23:00 +5°C° 0 mm 4 m/s 742 mmHg 93%

    19 Septembre, Jeudi

    Heure Température Précipitation Vent Pression Humidité
    00:00 +5°C° 0 mm 3 m/s 742 mmHg 94%
    01:00 +5°C° 0 mm 3 m/s 742 mmHg 95%
    02:00 +4°C° 0 mm 3 m/s 743 mmHg 96%
    03:00 +4°C° 0 mm 3 m/s 743 mmHg 97%
    04:00 +4°C° 0 mm 3 m/s 743 mmHg 97%
    05:00 +4°C° 0 mm 3 m/s 744 mmHg 98%
    06:00 +4°C° 0 mm 3 m/s 744 mmHg 96%
    07:00 +5°C° 0 mm 3 m/s 744 mmHg 95%
    08:00 +7°C° 0 mm 3 m/s 745 mmHg 93%
    09:00 +8°C° 0.1 mm 3 m/s 745 mmHg 88%
    10:00 +9°C° 0.1 mm 2 m/s 746 mmHg 82%
    11:00 +10°C° 0.1 mm 2 m/s 746 mmHg 77%
    12:00 +12°C° 0.1 mm 2 m/s 746 mmHg 72%
    13:00 +11°C° 0.1 mm 3 m/s 746 mmHg 67%
    14:00 +12°C° 0.1 mm 3 m/s 746 mmHg 61%
    15:00 +11°C° 0.3 mm 3 m/s 746 mmHg 66%
    16:00 +12°C° 0.3 mm 2 m/s 746 mmHg 70%
    17:00 +10°C° 0.3 mm 2 m/s 746 mmHg 75%
    18:00 +9°C° 0.1 mm 2 m/s 746 mmHg 79%
    19:00 +8°C° 0.1 mm 2 m/s 746 mmHg 83%
    20:00 +7°C° 0.1 mm 2 m/s 747 mmHg 87%
    21:00 +7°C° 0 mm 2 m/s 747 mmHg 87%
    22:00 +8°C° 0 mm 1 m/s 747 mmHg 87%
    23:00 +8°C° 0 mm 1 m/s 746 mmHg 88%

    20 Septembre, Vendredi

    Heure Température Précipitation Vent Pression Humidité
    00:00 +7°C° 0 mm 1 m/s 746 mmHg 90%
    01:00 +7°C° 0 mm 1 m/s 746 mmHg 92%
    02:00 +5°C° 0 mm 2 m/s 746 mmHg 95%
    03:00 +5°C° 0.1 mm 2 m/s 746 mmHg 95%
    04:00 +5°C° 0.1 mm 2 m/s 746 mmHg 96%
    05:00 +4°C° 0.1 mm 2 m/s 746 mmHg 97%
    06:00 +4°C° 0 mm 3 m/s 746 mmHg 94%
    07:00 +5°C° 0 mm 3 m/s 746 mmHg 91%
    08:00 +5°C° 0 mm 4 m/s 746 mmHg 88%
    09:00 +6°C° 0.3 mm 4 m/s 747 mmHg 85%
    10:00 +6°C° 0.3 mm 4 m/s 747 mmHg 82%
    11:00 +6°C° 0.3 mm 4 m/s 748 mmHg 79%
    12:00 +7°C° 0.2 mm 4 m/s 748 mmHg 73%
    13:00 +8°C° 0.2 mm 5 m/s 748 mmHg 67%
    14:00 +9°C° 0.2 mm 5 m/s 748 mmHg 61%
    15:00 +8°C° 0.1 mm 4 m/s 748 mmHg 64%
    16:00 +8°C° 0.1 mm 4 m/s 749 mmHg 68%
    17:00 +8°C° 0.1 mm 3 m/s 749 mmHg 71%
    18:00 +7°C° 0 mm 3 m/s 749 mmHg 75%
    19:00 +5°C° 0 mm 3 m/s 750 mmHg 79%
    20:00 +3°C° 0 mm 3 m/s 751 mmHg 83%
    21:00 +3°C° 0 mm 3 m/s 751 mmHg 85%
    22:00 +2°C° 0 mm 3 m/s 751 mmHg 86%
    23:00 +2°C° 0 mm 3 m/s 752 mmHg 87%

    21 Septembre, Samedi

    Heure Température Précipitation Vent Pression Humidité
    00:00 +2°C° 0 mm 3 m/s 752 mmHg 89%
    01:00 +1°C° 0 mm 3 m/s 752 mmHg 91%
    02:00 +1°C° 0 mm 3 m/s 752 mmHg 93%
    03:00 0°C° 0 mm 3 m/s 752 mmHg 93%
    04:00 0°C° 0 mm 3 m/s 753 mmHg 94%
    05:00 +1°C° 0 mm 2 m/s 753 mmHg 94%
    06:00 +1°C° 0 mm 3 m/s 753 mmHg 88%
    07:00 +2°C° 0 mm 3 m/s 753 mmHg 83%
    08:00 +3°C° 0 mm 3 m/s 754 mmHg 77%
    09:00 +5°C° 0 mm 3 m/s 754 mmHg 70%
    10:00 +7°C° 0 mm 3 m/s 754 mmHg 62%
    11:00 +8°C° 0 mm 4 m/s 754 mmHg 55%
    12:00 +8°C° 0.1 mm 4 m/s 754 mmHg 55%
    13:00 +8°C° 0.1 mm 4 m/s 754 mmHg 55%
    14:00 +10°C° 0.1 mm 4 m/s 753 mmHg 55%
    15:00 +9°C° 0 mm 3 m/s 754 mmHg 58%
    16:00 +9°C° 0 mm 2 m/s 754 mmHg 61%
    17:00 +8°C° 0 mm 2 m/s 754 mmHg 64%
    18:00 +8°C° 0 mm 1 m/s 754 mmHg 68%
    19:00 +7°C° 0 mm 1 m/s 754 mmHg 72%
    20:00 +4°C° 0 mm 0 m/s 755 mmHg 75%
    21:00 +5°C° 0 mm 1 m/s 755 mmHg 76%
    22:00 +5°C° 0 mm 1 m/s 755 mmHg 77%
    23:00 +5°C° 0 mm 1 m/s 755 mmHg 78%
    Voir plus